136P/Mueller 3 (2016)

Japanese version
Home page
Updated on February 7, 2017

---------------------------------------------------------------------

* Profile

* Pictures

* Orbital Elements

Epoch 2016 May 12.0 TT = JDT 2457520.5
T 2016 May 31.20942 TT                                  MPCW
q   2.9790848            (2000.0)            P               Q
n   0.11436716     Peri.  225.17195     +0.99248894     -0.05222997
a   4.2034106      Node   137.45354     +0.08172221     +0.95597629
e   0.2912696      Incl.    9.41591     -0.09103400     +0.28875832
P   8.62
From 240 observations 1998 Aug. 17-2016 Aug. 7, mean residual 0".8.
     Nongravitational parameters Y1 = -1.15, Y2 = -0.0098.

* Magnitudes Graph

        m1 = 0 + 5 log d + 33 log r(t - 130)

---------------------------------------------------------------------

The orbital elements are published on M.P.E.C. 2016-Q04.
The magnitudes graphs are made with Comet for Windows.

---------------------------------------------------------------------

Copyright(C) Seiichi Yoshida (comet@aerith.net). All rights reserved.